User: anonymous   Login
Location: Theydon Bois
(51.6750°N, 0.1050°E)
Time: 06:28:22
(UTC+00:00)
Language:

NOAA 11 - Orbit

View from above orbital plane
View from above orbital plane
View from above satellite
View from above satellite

Ground track
Ground track

The orbit data is extracted from the following two-line orbital elements,

1 19531U 88089A   18054.60337130 -.00000023 +00000-0 +92514-5 0  9995
2 19531 098.5155 107.2988 0011853 040.8209 319.3851 14.15221923518060
Epoch (UTC): 23 February 2018 14:28:51
Eccentricity: 0.0011853
inclination: 98.5155°
perigee height: 833 km
apogee height: 850 km
right ascension of ascending node: 107.2988°
argument of perigee: 40.8209°
revolutions per day: 14.15221923
mean anomaly at epoch: 319.3851°
orbit number at epoch: 51806

The dashed part of the orbit path shows where the satellite is in the earth's shadow,  

DLR